[[{"header":{"parameterUnit":"m.s-1","parameterCategory":1,"la1":30.2991,"la2":30.254,"lo1":-89.0895,"lo2":-89.0444,"dy":0.0017,"dx":0.0017,"nx":28,"ny":28,"refTime":"2024-05-18T21:00:00:Z","depth":0,"parameterNumber":2,"parameterNumberName":"U-component_of_WINDS"},"data":[0,0,0,0,0,0,0,0,0,0,0,0,0,0,0,0,0,0,0,0,0,0,0,0,0,0,0,0,0,0,0,0,0,0,0,0,0,0,0,0,0,0,0,0,0,0,0,0,0,0,0,0,0,0,0,0,0,0,-1.0341,-1.0339,0,-1.0224,-1.0222,-1.0221,-1.0168,-1.0168,-1.0168,-1.0169,-1.0047,-1.0044,-1.0041,0,0,0,0,0,0,0,0,0,0,0,0,0,-1.0519,-1.0516,-1.0341,-1.0339,-1.0338,-1.0224,-1.0222,-1.0221,-1.0168,-1.0168,-1.0168,-1.0169,-1.0049,-1.0045,-1.0041,0,0,0,0,0,0,0,0,0,0,0,0,0,-1.0425,-1.0515,-1.0341,-1.0298,-1.0293,-1.0224,-1.0222,-1.022,-1.0168,-1.0168,-1.0168,-1.0169,-1.005,-1.0045,-1.004,-1.0005,0,0,-1.0025,-1.0022,0,0,0,0,0,0,0,0,-1.0431,-1.0419,-1.0306,-1.0301,-1.0295,-1.0211,-1.024,-1.0148,-1.0168,-1.0215,-1.0169,-1.0169,-1.0102,-1.0092,-1.007,-0.9999,-0.9994,-1.0024,-1.0021,-1.0019,-1.0018,0,0,0,0,0,0,0,-1.0437,-1.0424,-1.0294,-1.0304,-1.0298,-1.0284,-1.0271,-1.0223,-1.0159,-1.0211,-1.0207,-1.0194,-1.0099,-1.0075,-1.0067,-0.9992,-1.0024,-1.002,-1.0017,-1.0015,-0.9888,-0.9888,0,0,0,0,0,0,-1.0451,-1.0429,-1.0298,-1.0291,-1.0365,-1.0281,-1.0266,-1.0238,-1.0159,-1.0147,-1.0194,-1.0192,-1.0083,-1.0073,-1.0062,-1.0016,-1.0019,-1.0014,-1.0011,-0.9888,-0.9888,-0.9888,0,0,0,0,0,0,-1.0455,-1.044,-1.0303,-1.0359,-1.0341,-1.0278,-1.0246,-1.0235,-1.0211,-1.0146,-1.0134,-1.0181,-1.0083,-1.0069,-1.002,-1.0011,-1.0012,-1.0008,-0.9889,-0.9888,-0.9888,-0.9924,0,0,0,0,0,0,-1.046,-1.0441,-1.0427,-1.0359,-1.0338,-1.0263,-1.0245,-1.0233,-1.0203,-1.0199,-1.0131,-1.012,-1.0082,-1.0028,-1.0015,-1.0004,-1.0004,-0.9889,-0.9889,-0.9888,-0.9923,-0.9925,-0.9926,0,0,0,0,0,-1.0467,-1.0442,-1.0427,-1.0411,-1.0319,-1.0262,-1.025,-1.0207,-1.0202,-1.0188,-1.0146,-1.0122,-1.0015,-1.0023,-1.0008,-0.9996,-0.989,-0.9889,-0.9888,-0.9923,-0.9925,-0.9926,0,0,0,0,0,0,-1.051,-1.0432,-1.0415,-1.0367,-1.0322,-1.0253,-1.0233,-1.021,-1.0165,-1.0163,-1.0112,-1.0097,-1.0052,-1.0019,-1.003,-0.9959,-0.995,-0.9946,-0.9982,-0.9983,-0.9984,-0.9993,-0.9999,0,0,0,0,0,-1.0514,-1.0475,-1.0409,-1.0373,-1.0351,-1.0297,-1.027,-1.0241,-1.0192,-1.0173,-1.0127,-1.008,-1.0036,-1.0008,-0.9963,-0.9919,-0.9903,-0.9903,-0.9905,-0.9906,-0.9903,-0.9878,-0.9877,-0.9885,-0.9885,-0.9885,0,0,-1.0522,-1.0474,-1.0452,-1.038,-1.0342,-1.0302,-1.0281,-1.0239,-1.0209,-1.0166,-1.0117,-1.0082,-1.0026,-0.998,-0.9957,-0.9951,-0.9898,-0.9905,-0.9907,-0.9903,-0.9877,-0.9876,-0.9876,-0.9885,-0.9885,-0.9885,0,0,-1.0515,-1.0476,-1.0442,-1.0404,-1.0347,-1.0311,-1.0303,-1.0238,-1.0214,-1.0164,-1.0131,-1.0095,-1.0019,-0.9981,-0.9952,-0.9933,-0.9909,-0.992,-0.9927,-0.9903,-0.9902,-0.9902,-0.9895,-0.9893,-0.9918,-0.9918,-0.9918,0,-1.0532,-1.0471,-1.0427,-1.0388,-1.0357,-1.0318,-1.0283,-1.0248,-1.0179,-1.0159,-1.0154,-1.0059,-1.0018,-0.9963,-0.9958,-0.9936,-0.9925,-0.9927,-0.9906,-0.9905,-0.9903,-0.9897,-0.9894,-0.9919,-0.9919,-0.9919,-0.9919,0,-1.0495,-1.0453,-1.0433,-1.0368,-1.0335,-1.0298,-1.0249,-1.0221,-1.0196,-1.016,-1.0111,-1.0061,-1.0006,-0.9991,-0.9965,-0.9932,-0.993,-0.9916,-0.9906,-0.9905,-0.9898,-0.9895,-0.9922,-0.9921,-0.9921,-0.992,0,0,-1.051,-1.0423,-1.0416,-1.0387,-1.0321,-1.0288,-1.025,-1.0197,-1.0174,-1.0128,-1.0095,-1.0033,-1.002,-0.9987,-0.9957,-0.9936,-0.9925,-0.9925,-0.9923,-0.9927,-0.9886,-0.9896,-0.9894,-0.991,-0.9909,-0.9909,-0.989,0,-1.0495,-1.0425,-1.0385,-1.0332,-1.0293,-1.0256,-1.0223,-1.0179,-1.0146,-1.0108,-1.0071,-1.0028,-1.0014,-0.9994,-0.9972,-0.9931,-0.9916,-0.9932,-0.9878,-0.9877,-0.9893,-0.989,-0.99,-0.9885,-0.9887,-0.9887,-0.9886,0,-1.0467,-1.0423,-1.0366,-1.0306,-1.0288,-1.0259,-1.0208,-1.0172,-1.0122,-1.01,-1.0064,-1.0034,-0.9993,-0.9988,-0.993,-0.9942,-0.9918,-0.9895,-0.9893,-0.9886,-0.9881,-0.9882,-0.988,-0.9877,-0.9881,-0.9882,-0.9882,0,-1.0484,-1.0411,-1.0367,-1.0343,-1.0272,-1.0252,-1.0222,-1.0172,-1.0143,-1.0099,-1.0079,-1.0031,-1.0004,-0.9967,-0.9925,-0.9925,-0.9872,-0.9863,-0.9852,-0.9853,-0.9841,-0.9842,-0.9835,-0.9827,-0.9827,-0.9827,-0.9827,0,-1.0471,-1.0437,-1.0374,-1.0347,-1.0309,-1.0264,-1.0227,-1.0194,-1.015,-1.0116,-1.0081,-1.005,-0.9997,-0.996,-0.9927,-0.9885,-0.9873,-0.9853,-0.9845,-0.9856,-0.9858,-0.9839,-0.9838,-0.9826,-0.9827,-0.9827,-0.9827,0,-1.0483,-1.0439,-1.0389,-1.0327,-1.031,-1.0285,-1.0231,-1.0204,-1.0169,-1.0127,-1.0115,-1.006,-1.0015,-0.997,-0.9908,-0.9886,-0.9844,-0.9833,-0.9861,-0.9856,-0.9848,-0.9849,-0.9826,-0.9821,-0.9818,-0.9818,-0.9818,0,-1.0477,-1.045,-1.0385,-1.036,-1.0331,-1.0291,-1.0262,-1.0217,-1.0188,-1.013,-1.011,-1.0062,-1.0021,-0.995,-0.9904,-0.9858,-0.9845,-0.984,-0.9837,-0.985,-0.9844,-0.9846,-0.9844,-0.9841,-0.9841,-0.9842,-0.9842,0,-1.047,-1.0451,-1.041,-1.0362,-1.0328,-1.0288,-1.0247,-1.0228,-1.0176,-1.0145,-1.0098,-1.0067,-1.0004,-0.9957,-0.9905,-0.9874,-0.9849,-0.9843,-0.9838,-0.9849,-0.9866,-0.9857,-0.9864,-0.9844,-0.9843,-0.9843,-0.9843,-0.9843,-1.0473,-1.0448,-1.0399,-1.0355,-1.0319,-1.0282,-1.0253,-1.0216,-1.0176,-1.0122,-1.0099,-1.0052,-1.0003,-0.9931,-0.99,-0.9863,-0.9857,-0.9849,-0.9847,-0.9846,-0.9849,-0.9873,-0.9854,-0.9853,-0.9853,-0.9853,-0.9853,0,-1.0465,-1.0431,-1.0392,-1.0335,-1.0301,-1.0282,-1.0236,-1.0208,-1.0167,-1.0125,-1.0086,-1.0033,-0.9987,-0.9939,-0.9891,-0.9871,-0.9858,-0.9859,-0.986,-0.9853,-0.9857,-0.9866,-0.987,-0.987,-0.987,-0.987,-0.987,-0.987,-1.0456,-1.0413,-1.0388,-1.0327,-1.0294,-1.0248,-1.0223,-1.0189,-1.0155,-1.0097,-1.0059,-1.0029,-0.9984,-0.9933,-0.989,-0.9878,-0.9861,-0.9866,-0.985,-0.9854,-0.9853,-0.9852,-0.986,-0.9863,-0.9863,-0.9849,-0.9849,-0.9849]},{"header":{"parameterUnit":"m.s-1","parameterCategory":1,"la1":30.2991,"la2":30.254,"lo1":-89.0895,"lo2":-89.0444,"dy":0.0017,"dx":0.0017,"nx":28,"ny":28,"refTime":"2024-05-18T21:00:00:Z","depth":0,"parameterNumber":3,"parameterNumberName":"V-component_of_WINDS"},"data":[0,0,0,0,0,0,0,0,0,0,0,0,0,0,0,0,0,0,0,0,0,0,0,0,0,0,0,0,0,0,0,0,0,0,0,0,0,0,0,0,0,0,0,0,0,0,0,0,0,0,0,0,0,0,0,0,0,0,1.6098,1.6098,0,1.6104,1.6104,1.6104,1.6159,1.616,1.6162,1.6163,1.6166,1.6165,1.6164,0,0,0,0,0,0,0,0,0,0,0,0,0,1.6133,1.6132,1.6098,1.6098,1.6098,1.6104,1.6104,1.6104,1.6159,1.616,1.6162,1.6164,1.6167,1.6165,1.6164,0,0,0,0,0,0,0,0,0,0,0,0,0,1.6126,1.6131,1.6098,1.6126,1.6129,1.6104,1.6104,1.6104,1.6158,1.616,1.6162,1.6164,1.6167,1.6165,1.6164,1.6111,0,0,1.6158,1.6157,0,0,0,0,0,0,0,0,1.6126,1.6124,1.6122,1.6124,1.6127,1.6133,1.6117,1.6106,1.6158,1.6147,1.6163,1.6165,1.6153,1.6153,1.6149,1.6111,1.6111,1.6158,1.6157,1.6156,1.6156,0,0,0,0,0,0,0,1.6126,1.6124,1.61,1.6122,1.6125,1.6138,1.6139,1.6115,1.6138,1.6148,1.6152,1.6152,1.6155,1.6151,1.615,1.6111,1.6158,1.6156,1.6155,1.6155,1.6029,1.6027,0,0,0,0,0,0,1.6123,1.6124,1.61,1.61,1.6132,1.6136,1.6137,1.6129,1.6139,1.6142,1.615,1.6155,1.6153,1.6152,1.615,1.6088,1.6156,1.6154,1.6153,1.6031,1.6028,1.6026,0,0,0,0,0,0,1.6124,1.6121,1.61,1.6114,1.6112,1.6133,1.6123,1.6128,1.6124,1.6141,1.6145,1.6142,1.6154,1.6153,1.612,1.6089,1.6154,1.6152,1.6034,1.603,1.6027,1.5963,0,0,0,0,0,0,1.6125,1.612,1.6101,1.6113,1.6111,1.607,1.6121,1.6126,1.6121,1.6126,1.6134,1.6137,1.6156,1.6122,1.6118,1.6087,1.6151,1.6037,1.6032,1.6028,1.5968,1.5958,1.595,0,0,0,0,0,1.6126,1.6083,1.61,1.6097,1.6087,1.6068,1.6067,1.6091,1.6118,1.6098,1.6109,1.6137,1.6093,1.6119,1.6114,1.6082,1.6039,1.6033,1.6029,1.5972,1.596,1.595,0,0,0,0,0,0,1.6066,1.6085,1.6104,1.6064,1.6064,1.6078,1.6054,1.6077,1.6069,1.6075,1.6104,1.6105,1.6067,1.6072,1.61,1.6031,1.6071,1.6064,1.6029,1.6018,1.6009,1.6008,1.6149,0,0,0,0,0,1.6049,1.6032,1.6049,1.6012,1.6011,1.6032,1.6025,1.6043,1.6044,1.6044,1.6053,1.6052,1.6039,1.6029,1.6017,1.597,1.5971,1.5946,1.5936,1.5929,1.5922,1.5896,1.5884,1.6009,1.6009,1.6009,0,0,1.6012,1.602,1.6008,1.6,1.6003,1.5984,1.6032,1.6011,1.5997,1.6041,1.6011,1.6017,1.6018,1.5978,1.596,1.598,1.5888,1.5922,1.5916,1.5914,1.589,1.5878,1.5867,1.6006,1.6006,1.6007,0,0,1.5934,1.594,1.5909,1.591,1.5913,1.5928,1.592,1.593,1.5936,1.5907,1.5939,1.5923,1.5899,1.5898,1.5894,1.5817,1.5841,1.5812,1.5763,1.5737,1.5727,1.5718,1.5689,1.5678,1.5807,1.5806,1.5806,0,1.5888,1.5862,1.5889,1.5866,1.5861,1.5901,1.5869,1.5869,1.5868,1.5863,1.5886,1.5856,1.586,1.5819,1.58,1.5797,1.5788,1.5811,1.5726,1.5718,1.571,1.5683,1.5672,1.5803,1.5803,1.5803,1.5804,0,1.5803,1.5785,1.5759,1.5758,1.575,1.5723,1.5745,1.5734,1.5753,1.5765,1.5733,1.5739,1.5729,1.5721,1.5739,1.5682,1.5695,1.5722,1.5761,1.5694,1.5669,1.5658,1.5797,1.5799,1.58,1.5801,0,0,1.5688,1.5702,1.5692,1.5691,1.5698,1.5684,1.5658,1.5648,1.5638,1.5636,1.5613,1.5592,1.5617,1.5613,1.5632,1.5609,1.5545,1.5639,1.5639,1.562,1.5481,1.546,1.5447,1.5562,1.5561,1.5559,1.5481,0,1.5612,1.5569,1.5593,1.5545,1.5528,1.5566,1.5543,1.5544,1.5554,1.554,1.5551,1.5535,1.557,1.5567,1.5547,1.5557,1.5518,1.5564,1.554,1.5539,1.5537,1.5434,1.5412,1.5337,1.5471,1.5469,1.5468,0,1.5518,1.5512,1.5463,1.5472,1.5466,1.5445,1.5438,1.5425,1.5426,1.5435,1.543,1.5454,1.5428,1.5469,1.5432,1.5463,1.5455,1.5459,1.5457,1.5454,1.5498,1.5427,1.5314,1.5302,1.5453,1.5454,1.5455,0,1.5436,1.5417,1.5384,1.5383,1.5393,1.5377,1.5381,1.5385,1.5377,1.5371,1.5366,1.5357,1.5351,1.5343,1.5363,1.5391,1.5324,1.5366,1.5329,1.5328,1.5311,1.5312,1.5194,1.5309,1.5309,1.5309,1.531,0,1.5348,1.5316,1.5348,1.5328,1.5293,1.5321,1.5285,1.5293,1.5296,1.5277,1.531,1.5291,1.532,1.5304,1.532,1.5286,1.5284,1.529,1.5294,1.5286,1.5285,1.528,1.5285,1.5307,1.5307,1.5308,1.5308,0,1.5251,1.5271,1.5238,1.5251,1.5253,1.5226,1.5237,1.5218,1.5231,1.5207,1.5203,1.5223,1.5206,1.5226,1.521,1.5221,1.5175,1.5188,1.5174,1.5177,1.5138,1.5141,1.5012,1.4995,1.5122,1.5121,1.512,0,1.5192,1.5169,1.5179,1.5169,1.5171,1.5155,1.5147,1.5174,1.5165,1.5165,1.5146,1.5132,1.5122,1.5093,1.5105,1.5093,1.5105,1.506,1.5103,1.5095,1.5102,1.5103,1.51,1.5051,1.5049,1.5048,1.5047,0,1.5086,1.5097,1.5086,1.5077,1.5068,1.5062,1.5059,1.5049,1.5077,1.5065,1.5048,1.504,1.5025,1.501,1.5002,1.5005,1.5029,1.5034,1.5024,1.5015,1.5007,1.5009,1.5149,1.5036,1.5037,1.5038,1.5039,1.5039,1.5005,1.4986,1.499,1.4975,1.4976,1.4972,1.4955,1.4966,1.4953,1.4943,1.4959,1.4938,1.494,1.4931,1.4931,1.4914,1.4933,1.492,1.4916,1.4912,1.4905,1.5012,1.4913,1.4913,1.4914,1.4914,1.4914,0,1.49,1.4904,1.4891,1.4886,1.4874,1.49,1.4898,1.4887,1.4868,1.4868,1.4857,1.4838,1.4823,1.4835,1.4822,1.4807,1.4818,1.4802,1.4803,1.4803,1.489,1.4898,1.4794,1.4794,1.4794,1.4794,1.4794,1.4794,1.4843,1.4811,1.4822,1.479,1.4795,1.4774,1.4771,1.4767,1.4767,1.4744,1.4732,1.474,1.4744,1.4733,1.472,1.4724,1.4717,1.4697,1.4705,1.4785,1.4797,1.4808,1.4816,1.4696,1.4696,1.4619,1.4619,1.4618]}]]